Regional Weather Roundup
Issued by NWS

Home | Current Version | Previous Version | Graphics & Text | Print | Product List | Glossary On
Versions: 1 2 3 4 5 6 7 8 9 10 11 12 13 14 15 16 17 18 19 20 21 22 23 24 25 26 27 28
000
ASUS45 KBOU 260507
RWRCO

WEATHER ROUNDUP FOR COLORADO
NATIONAL WEATHER SERVICE DENVER/BOULDER CO
1100 PM MDT TUE APR 25 2017

NOTE: "FAIR" INDICATES FEW OR NO CLOUDS BELOW 12000 FEET WITH NO
SIGNIFICANT WEATHER AND/OR OBSTRUCTIONS TO VISIBILITY.

COZ001>005-013-030-031-260600-
...NORTHWEST COLORADO...

CITY           SKY/WX    TMP DP  RH WIND       PRES   REMARKS
CRAIG          FAIR      34  28  79 W7        29.87R WCI  28
HAYDEN         NOT AVBL
MEEKER         CLOUDY    36  34  92 CALM      29.88S
MOUNT WERNER   NOT AVBL
STEAMBOAT SPGS CLOUDY    33  32  98 CALM      29.86R
WALDEN           N/A     27  23  86 N9        29.87S WCI  17
$$

COZ006>008-011-260600-
...WEST CENTRAL VALLEYS...

CITY           SKY/WX    TMP DP  RH WIND       PRES   REMARKS
GRAND JUNCTION CLOUDY    41  38  89 NW12      29.89R
MONTROSE       FAIR      39  33  79 S5        29.90R
EAGLE          CLOUDY    35  32  88 NE3       29.88R
RIFLE          FAIR      40  33  76 NW6       29.87R
DELTA          MOCLDY    42  37  84 NE5       29.88R
NUCLA          MOCLDY    36  32  87 E8        29.93R
$$

COZ017>023-064>068-260600-
...SOUTHWEST COLORADO...

CITY           SKY/WX    TMP DP  RH WIND       PRES   REMARKS
DURANGO        FAIR      40  20  44 NW21G28   29.79R
CORTEZ         FAIR      33  27  78 E8        29.88R WCI  26
PAGOSA SPRINGS FAIR      37  21  52 N3        29.80S
TELLURIDE      MOCLDY    28  26  89 W7        29.92R WCI  21
WOLF CREEK PAS MOCLDY    18  14  86 NW10G21   29.89S FOG     WCI   6
$$

COZ009-010-012-014-032>034-037-058>063-260600-
...CENTRAL COLORADO...

CITY           SKY/WX    TMP DP  RH WIND       PRES   REMARKS
ASPEN          CLOUDY    32  30  92 NE3       29.85R
BUENA VISTA    FAIR      36  20  52 NW16      29.80S
COPPER MTN     SNOW      23  18  80 MISG      29.86F VSB 1/2
BERTHOUD PASS  CLOUDY    14   3  62 NW29G43   29.82S WCI  -7
COTTONWOOD PAS FAIR      32  21  64 CALM      29.84R
GUNNISON       FAIR      33  26  75 SW6       29.85R WCI  28
KREMMLING      CLOUDY    41  30  65 NW5       29.85S
LEADVILLE      MOCLDY    25  18  74 NW7       29.83S WCI  17
MONARCH PASS   FAIR      19  18  93 NW12      29.96S WCI   7
SALIDA         FAIR      38  32  80 E6        29.87S
SUNLIGHT       FOG       21  21 100 CALM      29.94R VSB 1/4
WILKERSON PASS MOCLDY    23  21  93 N6        29.86F FOG     WCI  16
$$

COZ069>075-260600-
...SAN LUIS VALLEY/SANGRE DE CRISTO MOUNTAINS...

CITY           SKY/WX    TMP DP  RH WIND       PRES   REMARKS
ALAMOSA        LGT SNOW  33  32  96 N17G25    29.79R VSB 3/4 WCI  22
LA VETA PASS   HVY SNOW  27  23  86 MISG      29.90R VSB<1/4
SAGUACHE       MOCLDY    36  23  60 NW15      29.80R
$$

COZ035-036-038>040-260600-
...NORTHERN COLORADO FRONT RANGE...

CITY           SKY/WX    TMP DP  RH WIND       PRES   REMARKS
DENVER INTL AP CLOUDY    33  27  78 NE15      29.85R WCI  23
DMNS CITY PARK   N/A     35  26  69 N13       29.86S WCI  26
AURORA         CLOUDY    33  32  97 NE10      29.86R WCI  24
FRONT RANGE AP NOT AVBL
ERIE MUNI ARPT CLOUDY    35  29  76 NE9       29.88R WCI  28
BOULDER MUN AP CLOUDY    36  30  80 NE6       29.87R
CENTENNIAL     CLOUDY    34  32  92 NE12      29.85R WCI  25
BROOMFIELD     NOT AVBL
FORT COLLINS   FAIR      33  26  75 N10       29.87R WCI  25
LONGMONT       CLOUDY    37  28  71 E7        29.89S
$$

COZ041-046-047-076>085-087-088-260600-
...PIKES PEAK/PALMER DIVIDE AND SOUTHERN FOOTHILLS...

CITY           SKY/WX    TMP DP  RH WIND       PRES   REMARKS
COLO. SPRINGS  LGT RAIN  39  34  82 N15       29.80R
A. F. ACADEMY  FLURRIES  35  34  98 N15       29.80R WCI  25
SCHRIEVER AFB  FLURRIES  35  34  96 N15G23    29.79  WCI  25
ELLICOTT       NOT AVBL
FALCON         LGT SNOW  33  32  96 N16G24    29.80S WCI  22
FORT CARSON    NOT AVBL
LIMON          CLOUDY    37  36  96 N16       29.79R
MONUMENT HILL  CLOUDY    30  30 100 N17       29.83R WCI  18
TRINIDAD       LGT SNOW  33  31  92 NW7       29.76S FOG     WCI  27
$$

COZ042>045-048>051-090-091-260600-
...NORTHEAST COLORADO...

CITY           SKY/WX    TMP DP  RH WIND       PRES   REMARKS
GREELEY ARPT   FAIR      33  27  78 N12       29.87R WCI  24
AKRON          CLOUDY    35  32  88 N13       29.81S WCI  26
BURLINGTON     NOT AVBL
WRAY           NOT AVBL
STERLING       CLOUDY    34  32  93 N9        29.84S WCI  26
HOLYOKE        MOCLDY    37  32  81 N13       29.82F
FORT MORGAN    FAIR      33  29  84 N7        29.85S WCI  27
$$

COZ086-089-092>099-260600-
...SOUTHEAST COLORADO...

CITY           SKY/WX    TMP DP  RH WIND       PRES   REMARKS
PUEBLO         LGT RAIN  45  39  79 N7        29.77R
LA JUNTA       LGT RAIN  45  41  86 NE17G28   29.74R
LAMAR          LGT RAIN  44  41  89 N15       29.71R
SPRINGFIELD      N/A     42  42 100 N12       29.70R
$$




USA.gov is the U.S. government's official web portal to all federal, state and local government web resources and services.